QPF
0.00 0.00 0.00 0.00 0.00 0.00 0.00 0.00 0.00 0.00 0.00 0.00 0.00 0.00 0.00 0.00 0.00 0.00 0.00 0.00 0.00 0.00 0.00 0.00 0.00 0.00 0.00 0.00 0.00 0.00 0.00 0.00 0.00 0.00 0.00 0.00 0.00 0.00 0.00 0.00 0.00 0.00 0.00
0.00 0.00 0.00 0.00 0.00 0.00 0.00 0.00 0.00 0.00 0.00 0.00 0.00 0.00 0.00 0.00 0.00 0.00 0.00 0.00 0.00 0.00 0.00 0.00 0.00 0.00 0.00 0.00 0.00 0.00 0.00 0.01 0.01 0.00 0.00 0.00 0.00 0.00 0.00 0.00 0.00 0.00 0.00
0.00 0.00 0.00 0.00 0.00 0.00 0.00 0.00 0.00 0.00 0.00 0.00 0.00 0.00 0.00 0.00 0.00 0.00 0.00 0.00 0.00 0.00 0.00 0.00 0.00 0.00 0.00 0.00 0.00 0.00 0.00 0.00 0.01 0.01 0.01 0.01 0.01 0.00 0.00 0.00 0.00 0.00 0.00
0.00 0.00 0.00 0.00 0.00 0.00 0.00 0.00 0.00 0.00 0.00 0.00 0.00 0.01 0.01 0.01 0.01 0.00 0.00 0.00 0.01 0.01 0.01 0.01 0.01 0.01 0.00 0.00 0.00 0.00 0.00 0.00 0.00 0.01 0.01 0.01 0.01 0.01 0.01 0.01 0.01 0.00 0.00
0.00 0.00 0.00 0.00 0.00 0.00 0.00 0.00 0.00 0.00 0.00 0.00 0.00 0.01 0.01 0.01 0.02 0.02 0.01 0.02 0.01 0.01 0.01 0.01 0.01 0.01 0.01 0.00 0.00 0.00 0.00 0.00 0.00 0.00 0.01 0.01 0.02 0.02 0.01 0.01 0.01 0.01 0.01
0.00 0.00 0.00 0.00 0.00 0.00 0.00 0.00 0.00 0.00 0.00 0.00 0.00 0.00 0.01 0.01 0.01 0.01 0.01 0.01 0.01 0.01 0.00 0.00 0.00 0.00 0.00 0.00 0.00 0.00 0.00 0.00 0.00 0.00 0.00 0.01 0.02 0.02 0.02 0.03 0.03 0.02 0.02
0.00 0.00 0.00 0.00 0.00 0.00 0.00 0.00 0.00 0.00 0.00 0.00 0.00 0.00 0.00 0.00 0.00 0.00 0.00 0.00 0.00 0.00 0.00 0.00 0.00 0.00 0.00 0.00 0.00 0.00 0.00 0.00 0.00 0.00 0.00 0.00 0.01 0.02 0.03 0.04 0.04 0.04 0.04
0.00 0.00 0.00 0.00 0.00 0.00 0.00 0.00 0.00 0.00 0.00 0.00 0.00 0.00 0.00 0.00 0.00 0.00 0.00 0.00 0.00 0.00 0.00 0.00 0.00 0.00 0.00 0.00 0.00 0.00 0.00 0.00 0.00 0.00 0.00 0.01 0.01 0.02 0.03 0.05 0.06 0.07 0.07
0.00 0.00 0.00 0.00 0.00 0.00 0.00 0.00 0.00 0.00 0.00 0.00 0.00 0.00 0.00 0.00 0.00 0.00 0.00 0.00 0.00 0.00 0.00 0.00 0.00 0.00 0.00 0.00 0.00 0.00 0.00 0.00 0.00 0.00 0.01 0.01 0.01 0.02 0.03 0.05 0.08 0.10 0.11
0.00 0.00 0.00 0.00 0.00 0.00 0.00 0.00 0.00 0.00 0.00 0.00 0.00 0.00 0.00 0.00 0.01 0.01 0.00 0.00 0.00 0.00 0.00 0.00 0.00 0.00 0.00 0.00 0.00 0.00 0.00 0.00 0.00 0.01 0.01 0.01 0.02 0.02 0.03 0.05 0.08 0.13 0.15
0.00 0.00 0.00 0.00 0.00 0.00 0.00 0.00 0.00 0.00 0.00 0.00 0.00 0.00 0.00 0.00 0.01 0.01 0.01 0.00 0.00 0.00 0.00 0.00 0.00 0.00 0.00 0.00 0.00 0.00 0.00 0.01 0.01 0.01 0.01 0.02 0.03 0.04 0.04 0.05 0.07 0.09 0.14
0.00 0.00 0.00 0.00 0.00 0.00 0.00 0.00 0.00 0.00 0.00 0.00 0.00 0.00 0.00 0.00 0.00 0.00 0.00 0.00 0.00 0.00 0.00 0.00 0.00 0.00 0.00 0.00 0.00 0.00 0.00 0.01 0.01 0.01 0.01 0.02 0.03 0.05 0.06 0.08 0.09 0.10 0.12
0.00 0.00 0.00 0.00 0.00 0.00 0.00 0.00 0.00 0.00 0.00 0.00 0.00 0.00 0.00 0.00 0.00 0.00 0.00 0.00 0.00 0.00 0.00 0.00 0.00 0.00 0.00 0.00 0.00 0.00 0.00 0.00 0.00 0.01 0.01 0.01 0.02 0.03 0.05 0.07 0.10 0.12 0.14
0.00 0.00 0.00 0.00 0.00 0.00 0.00 0.00 0.00 0.00 0.00 0.00 0.00 0.00 0.00 0.00 0.00 0.00 0.00 0.00 0.01 0.00 0.00 0.00 0.00 0.00 0.00 0.00 0.01 0.00 0.02 0.01 0.01 0.01 0.01 0.01 0.01 0.02 0.03 0.04 0.06 0.08 0.11
0.00 0.00 0.00 0.00 0.00 0.00 0.00 0.00 0.00 0.00 0.00 0.00 0.00 0.00 0.00 0.00 0.00 0.00 0.00 0.01 0.02 0.02 0.01 0.00 0.00 0.00 0.00 0.01 0.02 0.03 0.05 0.03 0.01 0.01 0.01 0.01 0.01 0.02 0.02 0.02 0.02 0.03 0.04
0.00 0.00 0.00 0.00 0.00 0.00 0.00 0.00 0.00 0.00 0.00 0.00 0.00 0.01 0.01 0.01 0.01 0.00 0.00 0.01 0.01 0.03 0.02 0.01 0.00 0.00 0.01 0.02 0.02 0.04 0.04 0.01 0.00 0.00 0.00 0.01 0.01 0.02 0.02 0.01 0.01 0.01 0.01
0.00 0.00 0.00 0.00 0.00 0.00 0.00 0.00 0.00 0.00 0.00 0.01 0.01 0.01 0.01 0.01 0.01 0.01 0.01 0.01 0.01 0.03 0.04 0.02 0.02 0.02 0.04 0.05 0.05 0.05 0.03 0.02 0.01 0.01 0.01 0.01 0.01 0.01 0.02 0.01 0.01 0.01 0.01
0.00 0.00 0.00 0.00 0.00 0.00 0.00 0.00 0.01 0.01 0.01 0.01 0.01 0.02 0.02 0.02 0.02 0.01 0.01 0.01 0.01 0.03 0.05 0.05 0.04 0.04 0.04 0.04 0.04 0.03 0.01 0.01 0.01 0.01 0.00 0.01 0.01 0.02 0.02 0.02 0.01 0.01 0.01
0.00 0.00 0.00 0.00 0.00 0.00 0.00 0.01 0.01 0.01 0.01 0.01 0.01 0.01 0.01 0.01 0.01 0.01 0.01 0.01 0.01 0.03 0.06 0.07 0.06 0.05 0.03 0.02 0.02 0.02 0.02 0.03 0.02 0.01 0.00 0.01 0.01 0.02 0.03 0.02 0.02 0.01 0.00
0.00 0.00 0.00 0.00 0.00 0.00 0.01 0.01 0.01 0.01 0.01 0.01 0.01 0.01 0.01 0.01 0.01 0.01 0.01 0.01 0.03 0.05 0.07 0.07 0.05 0.03 0.02 0.01 0.02 0.03 0.03 0.03 0.03 0.02 0.01 0.01 0.01 0.01 0.01 0.01 0.01 0.01 0.00
0.00 0.00 0.00 0.00 0.00 0.00 0.00 0.00 0.00 0.00 0.00 0.00 0.00 0.00 0.00 0.00 0.01 0.01 0.01 0.03 0.05 0.06 0.06 0.05 0.04 0.02 0.01 0.01 0.03 0.04 0.05 0.04 0.03 0.02 0.02 0.01 0.01 0.01 0.01 0.00 0.00 0.00 0.00
0.00 0.00 0.00 0.00 0.00 0.00 0.00 0.00 0.00 0.00 0.00 0.00 0.00 0.00 0.00 0.00 0.00 0.00 0.01 0.02 0.04 0.05 0.05 0.05 0.04 0.02 0.01 0.02 0.05 0.08 0.08 0.05 0.03 0.02 0.02 0.01 0.01 0.00 0.01 0.01 0.01 0.01 0.01
0.00 0.00 0.00 0.00 0.00 0.00 0.00 0.00 0.00 0.00 0.00 0.01 0.01 0.01 0.00 0.00 0.00 0.01 0.01 0.01 0.01 0.01 0.02 0.04 0.04 0.03 0.03 0.04 0.08 0.10 0.07 0.05 0.04 0.03 0.03 0.02 0.01 0.01 0.01 0.02 0.02 0.02 0.01
0.00 0.00 0.00 0.00 0.00 0.00 0.00 0.00 0.00 0.00 0.01 0.01 0.01 0.01 0.01 0.01 0.01 0.02 0.01 0.01 0.01 0.01 0.02 0.04 0.06 0.07 0.08 0.09 0.11 0.10 0.07 0.05 0.04 0.03 0.02 0.02 0.02 0.02 0.03 0.04 0.06 0.06 0.04
0.00 0.00 0.00 0.00 0.00 0.00 0.00 0.00 0.00 0.00 0.00 0.00 0.01 0.01 0.01 0.01 0.02 0.02 0.01 0.01 0.01 0.02 0.04 0.10 0.13 0.16 0.16 0.12 0.09 0.06 0.05 0.05 0.05 0.04 0.03 0.03 0.03 0.04 0.06 0.09 0.10 0.09 0.07
0.00 0.00 0.00 0.00 0.00 0.01 0.00 0.00 0.00 0.01 0.01 0.01 0.01 0.00 0.01 0.02 0.02 0.01 0.01 0.02 0.02 0.03 0.06 0.12 0.19 0.21 0.16 0.09 0.06 0.06 0.06 0.07 0.07 0.07 0.04 0.04 0.04 0.06 0.14 0.19 0.13 0.10 0.08
MSLP
1016.68 1016.79 1016.88 1016.95 1017.03 1017.11 1017.20 1017.27 1017.33 1017.34 1017.30 1017.22 1017.10 1016.98 1016.88 1016.84 1016.87 1016.99 1017.17 1017.39 1017.61 1017.79 1017.90 1017.94 1017.91 1017.83 1017.75 1017.68 1017.66 1017.69 1017.78 1017.89 1018.01 1018.12 1018.18 1018.20 1018.19 1018.16 1018.13 1018.13 1018.18 1018.28 1018.44
1016.90 1016.99 1017.06 1017.13 1017.19 1017.26 1017.34 1017.42 1017.47 1017.49 1017.47 1017.39 1017.28 1017.16 1017.04 1016.97 1016.96 1017.02 1017.14 1017.30 1017.48 1017.64 1017.75 1017.80 1017.79 1017.75 1017.68 1017.63 1017.61 1017.63 1017.69 1017.77 1017.85 1017.91 1017.94 1017.92 1017.88 1017.81 1017.75 1017.71 1017.73 1017.80 1017.94
1017.33 1017.41 1017.46 1017.50 1017.55 1017.60 1017.67 1017.73 1017.78 1017.79 1017.76 1017.68 1017.56 1017.40 1017.25 1017.12 1017.05 1017.03 1017.08 1017.19 1017.32 1017.45 1017.56 1017.63 1017.65 1017.63 1017.59 1017.54 1017.50 1017.49 1017.50 1017.53 1017.56 1017.57 1017.55 1017.50 1017.42 1017.33 1017.24 1017.19 1017.19 1017.25 1017.38
1017.91 1017.96 1017.99 1018.01 1018.04 1018.07 1018.11 1018.15 1018.17 1018.16 1018.11 1018.01 1017.85 1017.66 1017.45 1017.26 1017.11 1017.02 1017.00 1017.04 1017.12 1017.23 1017.33 1017.40 1017.44 1017.44 1017.40 1017.34 1017.28 1017.22 1017.18 1017.15 1017.12 1017.08 1017.02 1016.94 1016.84 1016.73 1016.63 1016.57 1016.56 1016.61 1016.74
1018.53 1018.56 1018.58 1018.58 1018.58 1018.58 1018.59 1018.60 1018.59 1018.54 1018.45 1018.31 1018.11 1017.87 1017.61 1017.36 1017.14 1016.98 1016.89 1016.86 1016.89 1016.96 1017.04 1017.11 1017.15 1017.14 1017.10 1017.02 1016.93 1016.83 1016.74 1016.65 1016.57 1016.49 1016.40 1016.30 1016.19 1016.07 1015.96 1015.89 1015.87 1015.92 1016.06
1019.09 1019.12 1019.12 1019.11 1019.09 1019.07 1019.05 1019.02 1018.96 1018.88 1018.75 1018.56 1018.32 1018.04 1017.74 1017.43 1017.16 1016.93 1016.78 1016.69 1016.67 1016.69 1016.73 1016.76 1016.78 1016.75 1016.69 1016.59 1016.47 1016.34 1016.21 1016.09 1015.99 1015.88 1015.78 1015.66 1015.54 1015.41 1015.29 1015.20 1015.17 1015.21 1015.33
1019.53 1019.56 1019.56 1019.55 1019.52 1019.49 1019.45 1019.38 1019.29 1019.17 1018.99 1018.77 1018.50 1018.19 1017.85 1017.51 1017.20 1016.93 1016.72 1016.57 1016.48 1016.44 1016.41 1016.40 1016.37 1016.30 1016.21 1016.09 1015.95 1015.80 1015.67 1015.55 1015.44 1015.33 1015.23 1015.11 1014.97 1014.83 1014.68 1014.56 1014.49 1014.49 1014.59
1019.82 1019.86 1019.88 1019.88 1019.87 1019.84 1019.79 1019.71 1019.59 1019.43 1019.22 1018.97 1018.68 1018.35 1018.01 1017.65 1017.32 1017.01 1016.75 1016.54 1016.38 1016.25 1016.15 1016.06 1015.96 1015.84 1015.71 1015.57 1015.43 1015.29 1015.17 1015.07 1014.99 1014.90 1014.81 1014.69 1014.54 1014.36 1014.17 1014.00 1013.87 1013.81 1013.85
1019.96 1020.04 1020.09 1020.13 1020.15 1020.15 1020.10 1020.01 1019.88 1019.70 1019.47 1019.20 1018.90 1018.57 1018.23 1017.88 1017.54 1017.21 1016.91 1016.64 1016.39 1016.17 1015.97 1015.77 1015.59 1015.41 1015.24 1015.08 1014.95 1014.84 1014.76 1014.70 1014.65 1014.60 1014.52 1014.40 1014.23 1014.01 1013.76 1013.51 1013.29 1013.15 1013.11
1020.02 1020.12 1020.23 1020.32 1020.38 1020.41 1020.39 1020.30 1020.16 1019.97 1019.73 1019.46 1019.16 1018.85 1018.52 1018.19 1017.85 1017.51 1017.17 1016.84 1016.50 1016.18 1015.86 1015.56 1015.28 1015.03 1014.81 1014.64 1014.52 1014.44 1014.40 1014.40 1014.39 1014.37 1014.31 1014.18 1013.98 1013.71 1013.39 1013.06 1012.76 1012.52 1012.40
1020.03 1020.17 1020.32 1020.46 1020.57 1020.63 1020.64 1020.56 1020.42 1020.23 1019.98 1019.71 1019.42 1019.12 1018.82 1018.51 1018.19 1017.84 1017.47 1017.08 1016.67 1016.24 1015.81 1015.40 1015.02 1014.69 1014.42 1014.23 1014.11 1014.05 1014.06 1014.09 1014.13 1014.13 1014.08 1013.94 1013.71 1013.40 1013.02 1012.61 1012.24 1011.93 1011.73
1020.01 1020.18 1020.36 1020.55 1020.69 1020.79 1020.81 1020.74 1020.60 1020.39 1020.14 1019.87 1019.59 1019.32 1019.04 1018.76 1018.46 1018.12 1017.73 1017.29 1016.81 1016.30 1015.77 1015.25 1014.77 1014.36 1014.04 1013.81 1013.67 1013.63 1013.65 1013.71 1013.76 1013.78 1013.73 1013.58 1013.33 1012.99 1012.58 1012.14 1011.72 1011.37 1011.13
1019.98 1020.15 1020.35 1020.55 1020.72 1020.82 1020.84 1020.78 1020.62 1020.40 1020.14 1019.87 1019.60 1019.34 1019.10 1018.85 1018.57 1018.25 1017.86 1017.40 1016.87 1016.29 1015.68 1015.07 1014.51 1014.01 1013.62 1013.35 1013.18 1013.12 1013.13 1013.19 1013.24 1013.26 1013.20 1013.05 1012.80 1012.46 1012.05 1011.62 1011.21 1010.86 1010.63
1019.90 1020.05 1020.24 1020.43 1020.59 1020.69 1020.70 1020.61 1020.44 1020.20 1019.93 1019.65 1019.38 1019.15 1018.93 1018.71 1018.47 1018.18 1017.80 1017.34 1016.79 1016.17 1015.51 1014.83 1014.20 1013.63 1013.17 1012.83 1012.61 1012.51 1012.48 1012.51 1012.54 1012.54 1012.48 1012.34 1012.12 1011.81 1011.46 1011.08 1010.74 1010.45 1010.26
1019.75 1019.86 1020.02 1020.18 1020.31 1020.38 1020.36 1020.24 1020.04 1019.78 1019.49 1019.21 1018.95 1018.72 1018.53 1018.35 1018.15 1017.90 1017.56 1017.12 1016.58 1015.94 1015.25 1014.54 1013.85 1013.22 1012.69 1012.28 1012.00 1011.82 1011.73 1011.71 1011.70 1011.68 1011.62 1011.51 1011.33 1011.10 1010.84 1010.57 1010.32 1010.14 1010.03
1019.51 1019.58 1019.69 1019.80 1019.89 1019.92 1019.86 1019.72 1019.49 1019.21 1018.91 1018.61 1018.36 1018.15 1017.98 1017.83 1017.67 1017.46 1017.16 1016.76 1016.25 1015.63 1014.94 1014.21 1013.48 1012.81 1012.22 1011.73 1011.37 1011.11 1010.95 1010.86 1010.81 1010.77 1010.72 1010.64 1010.53 1010.40 1010.25 1010.11 1010.00 1009.93 1009.93
1019.22 1019.24 1019.29 1019.36 1019.40 1019.39 1019.30 1019.13 1018.89 1018.59 1018.28 1017.98 1017.72 1017.52 1017.37 1017.24 1017.11 1016.94 1016.69 1016.33 1015.86 1015.27 1014.60 1013.87 1013.13 1012.42 1011.78 1011.23 1010.79 1010.45 1010.22 1010.07 1009.98 1009.92 1009.88 1009.85 1009.81 1009.77 1009.74 1009.73 1009.74 1009.80 1009.89
1018.91 1018.89 1018.91 1018.93 1018.94 1018.91 1018.80 1018.61 1018.36 1018.05 1017.73 1017.43 1017.17 1016.96 1016.81 1016.69 1016.58 1016.42 1016.20 1015.88 1015.44 1014.90 1014.25 1013.54 1012.80 1012.07 1011.39 1010.79 1010.29 1009.89 1009.59 1009.39 1009.27 1009.20 1009.18 1009.19 1009.22 1009.27 1009.33 1009.41 1009.52 1009.65 1009.82
1018.65 1018.61 1018.61 1018.62 1018.61 1018.56 1018.45 1018.26 1018.00 1017.70 1017.38 1017.06 1016.79 1016.56 1016.38 1016.24 1016.11 1015.96 1015.74 1015.44 1015.03 1014.52 1013.90 1013.21 1012.48 1011.75 1011.05 1010.41 1009.87 1009.43 1009.09 1008.86 1008.72 1008.65 1008.65 1008.69 1008.77 1008.87 1008.98 1009.11 1009.26 1009.42 1009.60
1018.50 1018.47 1018.46 1018.47 1018.46 1018.41 1018.30 1018.12 1017.87 1017.57 1017.24 1016.90 1016.60 1016.32 1016.10 1015.91 1015.73 1015.54 1015.30 1014.99 1014.59 1014.10 1013.51 1012.84 1012.13 1011.41 1010.71 1010.07 1009.51 1009.05 1008.70 1008.45 1008.31 1008.26 1008.28 1008.34 1008.43 1008.54 1008.65 1008.77 1008.88 1009.01 1009.15
1018.50 1018.48 1018.49 1018.51 1018.51 1018.47 1018.36 1018.19 1017.94 1017.63 1017.28 1016.91 1016.55 1016.21 1015.91 1015.63 1015.38 1015.12 1014.84 1014.50 1014.09 1013.60 1013.03 1012.39 1011.71 1011.01 1010.33 1009.70 1009.15 1008.70 1008.36 1008.13 1008.01 1007.97 1008.00 1008.06 1008.15 1008.23 1008.29 1008.33 1008.35 1008.38 1008.41
1018.65 1018.66 1018.68 1018.70 1018.71 1018.67 1018.57 1018.39 1018.13 1017.80 1017.40 1016.98 1016.54 1016.12 1015.71 1015.34 1014.99 1014.65 1014.29 1013.91 1013.48 1012.99 1012.44 1011.83 1011.18 1010.52 1009.88 1009.28 1008.77 1008.35 1008.04 1007.84 1007.75 1007.73 1007.77 1007.83 1007.88 1007.89 1007.87 1007.79 1007.67 1007.55 1007.44
1018.92 1018.95 1018.97 1018.99 1018.99 1018.93 1018.81 1018.61 1018.32 1017.95 1017.50 1017.00 1016.47 1015.94 1015.43 1014.94 1014.48 1014.05 1013.63 1013.20 1012.75 1012.26 1011.73 1011.15 1010.55 1009.95 1009.36 1008.81 1008.35 1007.98 1007.72 1007.56 1007.50 1007.51 1007.56 1007.60 1007.60 1007.54 1007.40 1007.18 1006.91 1006.61 1006.33
1019.27 1019.29 1019.30 1019.30 1019.26 1019.17 1019.00 1018.76 1018.41 1017.97 1017.45 1016.87 1016.25 1015.61 1014.99 1014.40 1013.84 1013.33 1012.85 1012.38 1011.92 1011.45 1010.95 1010.43 1009.88 1009.34 1008.82 1008.34 1007.93 1007.62 1007.41 1007.30 1007.28 1007.31 1007.36 1007.39 1007.35 1007.21 1006.96 1006.61 1006.17 1005.71 1005.27
1019.64 1019.63 1019.61 1019.55 1019.46 1019.30 1019.08 1018.76 1018.34 1017.83 1017.23 1016.56 1015.84 1015.12 1014.40 1013.72 1013.10 1012.53 1012.01 1011.54 1011.09 1010.65 1010.20 1009.74 1009.27 1008.80 1008.34 1007.93 1007.59 1007.33 1007.17 1007.11 1007.12 1007.18 1007.24 1007.25 1007.18 1006.98 1006.65 1006.19 1005.63 1005.02 1004.45
1019.98 1019.93 1019.85 1019.73 1019.56 1019.32 1019.02 1018.62 1018.12 1017.53 1016.85 1016.10 1015.31 1014.51 1013.73 1013.00 1012.33 1011.74 1011.22 1010.76 1010.35 1009.97 1009.59 1009.21 1008.81 1008.42 1008.04 1007.69 1007.40 1007.19 1007.07 1007.04 1007.08 1007.16 1007.23 1007.24 1007.15 1006.93 1006.55 1006.03 1005.39 1004.70 1004.03
Thickness
5710 5708 5704 5700 5700 5699 5697 5693 5693 5690 5687 5686 5685 5682 5681 5680 5678 5676 5672 5665 5661 5658 5657 5655 5654 5653 5652 5651 5651 5650 5650 5651 5651 5651 5652 5653 5654 5655 5657 5658 5659 5660 5660
5704 5702 5699 5695 5694 5691 5689 5686 5684 5680 5680 5678 5676 5673 5670 5670 5667 5662 5661 5655 5650 5647 5645 5643 5642 5641 5640 5640 5639 5640 5640 5640 5641 5642 5642 5643 5645 5647 5649 5651 5652 5654 5654
5696 5694 5693 5689 5686 5682 5678 5677 5675 5673 5670 5668 5666 5663 5661 5657 5655 5651 5647 5644 5641 5636 5633 5630 5629 5628 5628 5627 5627 5628 5629 5630 5631 5632 5633 5634 5636 5638 5641 5643 5645 5647 5648
5688 5685 5684 5680 5675 5674 5672 5668 5666 5664 5661 5657 5656 5654 5651 5646 5642 5638 5635 5632 5629 5626 5622 5619 5617 5615 5614 5614 5615 5615 5617 5618 5619 5620 5622 5624 5627 5629 5632 5634 5637 5639 5641
5679 5677 5673 5667 5666 5664 5661 5658 5654 5650 5647 5643 5641 5640 5638 5634 5631 5627 5623 5619 5615 5611 5609 5606 5605 5604 5602 5602 5602 5603 5604 5606 5607 5609 5611 5614 5617 5620 5623 5626 5628 5630 5632
5669 5667 5662 5657 5656 5653 5648 5643 5639 5635 5631 5628 5627 5627 5623 5621 5618 5615 5610 5606 5601 5598 5596 5594 5594 5595 5592 5592 5591 5591 5592 5593 5595 5597 5600 5603 5606 5610 5614 5616 5619 5621 5624
5659 5655 5653 5646 5643 5640 5634 5632 5627 5625 5621 5617 5614 5615 5616 5614 5610 5602 5596 5591 5587 5584 5581 5580 5580 5581 5582 5581 5581 5581 5581 5582 5584 5586 5589 5591 5595 5598 5602 5605 5608 5611 5615
5647 5644 5639 5637 5631 5626 5622 5617 5613 5610 5609 5604 5598 5597 5600 5601 5599 5593 5582 5575 5570 5567 5567 5567 5567 5567 5568 5570 5573 5572 5571 5572 5573 5575 5577 5580 5583 5586 5589 5592 5596 5600 5604
5635 5630 5627 5623 5618 5615 5612 5603 5597 5594 5591 5587 5583 5576 5575 5578 5573 5568 5563 5557 5553 5552 5552 5553 5555 5557 5557 5559 5561 5563 5563 5562 5562 5563 5566 5568 5571 5574 5577 5580 5583 5587 5592
5624 5620 5615 5610 5605 5601 5594 5589 5585 5577 5572 5571 5568 5560 5553 5548 5544 5548 5546 5545 5544 5542 5543 5544 5546 5548 5548 5550 5552 5550 5550 5549 5549 5551 5553 5556 5559 5562 5565 5568 5572 5575 5580
5612 5607 5601 5596 5590 5586 5578 5571 5566 5560 5558 5553 5549 5544 5538 5533 5529 5530 5533 5531 5532 5535 5536 5536 5537 5538 5538 5539 5541 5542 5540 5537 5536 5537 5540 5543 5546 5549 5552 5556 5560 5565 5570
5601 5594 5587 5581 5575 5570 5563 5556 5549 5546 5540 5533 5529 5527 5524 5521 5519 5518 5520 5521 5523 5526 5526 5525 5525 5527 5528 5529 5530 5529 5527 5524 5523 5524 5526 5528 5531 5535 5539 5543 5548 5554 5560
5591 5580 5574 5566 5561 5554 5547 5541 5536 5530 5525 5519 5514 5512 5509 5506 5505 5504 5505 5508 5508 5510 5511 5512 5514 5515 5515 5515 5516 5515 5512 5510 5510 5511 5512 5514 5517 5521 5525 5530 5536 5543 5550
5577 5566 5559 5552 5546 5540 5535 5529 5524 5520 5513 5507 5503 5498 5494 5493 5492 5490 5489 5488 5490 5492 5494 5496 5496 5496 5498 5499 5499 5497 5497 5497 5497 5497 5498 5500 5503 5507 5512 5517 5523 5529 5537
5562 5554 5547 5540 5534 5528 5522 5516 5513 5506 5502 5497 5494 5490 5486 5484 5480 5476 5472 5469 5467 5470 5477 5479 5477 5477 5478 5479 5480 5481 5482 5482 5483 5484 5485 5487 5490 5494 5500 5505 5511 5517 5524
5548 5542 5536 5530 5524 5517 5511 5505 5501 5497 5492 5487 5483 5479 5475 5473 5469 5464 5460 5455 5452 5450 5454 5458 5459 5460 5460 5463 5465 5467 5468 5469 5470 5472 5474 5476 5478 5482 5488 5495 5501 5506 5513
5537 5531 5525 5519 5514 5508 5502 5496 5491 5486 5482 5479 5474 5470 5466 5461 5457 5452 5446 5441 5438 5436 5437 5442 5443 5446 5447 5448 5451 5453 5456 5460 5464 5466 5466 5466 5468 5473 5479 5486 5492 5498 5503
5527 5521 5515 5510 5504 5499 5493 5487 5482 5478 5473 5469 5464 5459 5454 5448 5443 5437 5432 5429 5426 5423 5423 5429 5432 5436 5438 5439 5443 5446 5451 5455 5457 5458 5457 5458 5461 5465 5471 5478 5485 5490 5495
5518 5512 5507 5501 5496 5490 5485 5479 5473 5467 5462 5456 5450 5444 5439 5433 5428 5424 5419 5417 5415 5415 5416 5419 5423 5426 5429 5432 5437 5442 5446 5446 5448 5450 5451 5453 5456 5459 5465 5471 5477 5482 5487
5510 5504 5498 5492 5487 5481 5475 5468 5460 5453 5447 5441 5435 5429 5423 5418 5414 5410 5407 5405 5405 5407 5408 5410 5415 5420 5424 5429 5432 5437 5440 5440 5440 5443 5446 5450 5453 5455 5461 5466 5471 5476 5481
5500 5494 5487 5481 5475 5468 5459 5446 5439 5435 5432 5428 5423 5417 5412 5407 5403 5400 5399 5400 5401 5402 5404 5407 5412 5418 5423 5426 5429 5431 5431 5433 5436 5439 5443 5447 5451 5457 5462 5465 5468 5472 5476
5487 5480 5473 5466 5459 5451 5435 5425 5418 5418 5417 5415 5412 5406 5403 5401 5401 5398 5397 5397 5397 5399 5403 5405 5410 5414 5420 5423 5425 5426 5427 5429 5435 5441 5443 5447 5450 5454 5459 5463 5467 5468 5471
5472 5465 5457 5449 5442 5432 5419 5411 5405 5402 5405 5405 5401 5399 5398 5398 5395 5396 5396 5396 5398 5399 5400 5403 5408 5413 5418 5422 5423 5425 5427 5431 5437 5439 5438 5444 5448 5451 5455 5459 5460 5462 5466
5457 5450 5442 5433 5426 5419 5407 5400 5395 5395 5398 5397 5396 5395 5394 5394 5393 5392 5393 5396 5400 5404 5407 5409 5411 5415 5418 5422 5425 5428 5432 5435 5436 5436 5436 5442 5447 5449 5452 5453 5455 5458 5465
5443 5437 5430 5421 5414 5408 5398 5391 5386 5388 5389 5389 5390 5390 5390 5390 5390 5390 5392 5398 5405 5410 5412 5412 5414 5417 5422 5427 5432 5435 5436 5437 5439 5437 5435 5438 5443 5444 5446 5448 5451 5456 5466
5430 5425 5418 5412 5405 5399 5391 5385 5380 5383 5383 5384 5385 5385 5386 5387 5389 5390 5395 5402 5408 5413 5414 5415 5418 5422 5426 5431 5434 5437 5438 5438 5439 5438 5435 5435 5438 5438 5442 5443 5446 5453 5464